contact:dominique.lefevre@mio.osupytheas.fr, maurice.libes@osupytheas.fr, didier.mallarino@osupytheas.fr
Project:EMSO http://www.emso-fr.org/EMSO-France
Depth: 2436.0 m
Title:EMSO Ligure Ouest : Data MII capteur AQUADOPP
Date,Latitude,Longitude,X_East,Y_North,Z_Up,Amplitude_X,Amplitude_Y,Amplitude_Z,Batterie,SoundSpeed,Heading,Pitch,Roll,Pressure,TIS,Speed,Direction
, degrees North, degrees East, m.s-1, m.s-1,m.s-1, 1, 1, 1, Volt, m.s-1, degree, degree, degree, dbar, degree_C, m.s-1, degree
2019-11-14T00:04:03,42.805,6.029,-0.036,-0.001,-0.111,100.0,106.0,99.0,13.4,1505.3,325.5,-0.8,1.8,2470.145,13.31,0.036,268.4
2019-11-14T00:07:03,42.805,6.029,0.003,0.0,-0.084,99.0,106.0,97.0,13.4,1505.3,325.7,-0.7,1.8,2470.115,13.32,0.003,90.0
2019-11-14T00:10:03,42.805,6.029,-0.014,0.021,-0.092,99.0,106.0,98.0,13.4,1505.3,324.6,-0.7,1.9,2470.142,13.33,0.025,326.3
2019-11-14T00:13:03,42.805,6.029,0.0,0.013,-0.066,100.0,105.0,97.0,13.4,1505.3,326.5,-0.7,1.8,2470.136,13.33,0.013,0.0
2019-11-14T00:16:03,42.805,6.029,-0.018,0.018,-0.069,99.0,104.0,97.0,13.4,1505.3,328.6,-0.7,1.8,2470.095,13.33,0.025,315.0
2019-11-14T00:19:03,42.805,6.029,-0.019,-0.009,-0.069,100.0,106.0,100.0,13.3,1505.3,325.2,-0.7,1.8,2470.086,13.33,0.021,244.7
2019-11-14T00:22:03,42.805,6.029,-0.015,0.011,-0.104,99.0,105.0,98.0,13.4,1505.4,326.7,-0.7,1.8,2470.101,13.34,0.018,306.3
2019-11-14T00:25:03,42.805,6.029,0.03,0.01,-0.033,100.0,105.0,97.0,13.3,1505.4,325.3,-0.7,1.8,2470.11,13.34,0.031,71.6
2019-11-14T00:28:03,42.805,6.029,0.014,0.021,-0.045,100.0,106.0,97.0,13.4,1505.4,325.5,-0.7,1.9,2470.114,13.34,0.025,33.7
2019-11-14T00:31:03,42.805,6.029,0.027,0.0,-0.003,102.0,105.0,99.0,13.4,1505.4,325.3,-0.7,1.8,2470.094,13.34,0.026,90.0
2019-11-14T00:34:03,42.805,6.029,-0.013,0.006,-0.053,101.0,106.0,98.0,13.3,1505.4,323.4,-0.7,1.8,2470.158,13.34,0.014,294.8
2019-11-14T00:37:03,42.805,6.029,-0.01,0.002,-0.03,101.0,103.0,98.0,13.3,1505.4,326.3,-0.7,1.8,2470.11,13.34,0.01,281.3
2019-11-14T00:40:03,42.805,6.029,0.005,0.017,-0.045,98.0,107.0,97.0,13.4,1505.4,324.3,-0.7,1.8,2470.089,13.34,0.017,16.4
2019-11-14T00:43:03,42.805,6.029,0.036,0.006,-0.043,100.0,105.0,98.0,13.4,1505.4,326.7,-0.7,1.8,2470.092,13.34,0.036,80.5
2019-11-14T00:46:03,42.805,6.029,0.049,0.012,0.003,97.0,106.0,99.0,13.4,1505.4,324.5,-0.7,1.8,2470.047,13.34,0.05,76.2
2019-11-14T00:49:03,42.805,6.029,0.01,0.021,-0.003,99.0,106.0,98.0,13.4,1505.4,323.1,-0.7,1.8,2470.07,13.34,0.023,25.5
2019-11-14T00:52:03,42.805,6.029,0.002,0.031,-0.037,99.0,107.0,98.0,13.4,1505.4,324.6,-0.7,1.8,2470.087,13.34,0.031,3.7
2019-11-14T00:55:03,42.805,6.029,0.028,0.018,-0.01,100.0,108.0,97.0,13.4,1505.4,327.3,-0.7,1.8,2470.083,13.34,0.033,57.3
2019-11-14T00:58:03,42.805,6.029,0.003,0.004,-0.06,100.0,104.0,97.0,13.3,1505.4,327.0,-0.7,1.8,2470.073,13.34,0.005,36.9
2019-11-14T01:04:03,42.805,6.029,-0.009,0.025,-0.043,100.0,105.0,99.0,13.3,1505.3,326.1,-0.7,1.8,2470.128,13.32,0.026,340.2
2019-11-14T01:07:03,42.805,6.029,0.021,0.022,-0.002,99.0,105.0,98.0,13.4,1505.3,328.3,-0.7,1.8,2470.139,13.33,0.03,43.7
2019-11-14T01:10:03,42.805,6.029,0.024,-0.001,-0.031,99.0,105.0,98.0,13.4,1505.3,326.2,-0.7,1.8,2470.092,13.33,0.024,92.4
2019-11-14T01:13:03,42.805,6.029,0.0,0.023,-0.018,100.0,104.0,98.0,13.4,1505.3,326.4,-0.7,1.9,2470.074,13.33,0.023,0.0
2019-11-14T01:16:03,42.805,6.029,-0.015,0.023,-0.025,100.0,103.0,98.0,13.4,1505.3,324.5,-0.7,1.8,2470.095,13.33,0.027,326.9
2019-11-14T01:19:03,42.805,6.029,0.001,0.028,-0.019,100.0,104.0,97.0,13.3,1505.4,326.3,-0.7,1.9,2470.1,13.34,0.028,2.0
2019-11-14T01:22:03,42.805,6.029,0.02,0.02,-0.012,97.0,103.0,99.0,13.3,1505.4,326.7,-0.7,1.8,2470.113,13.34,0.028,45.0
2019-11-14T01:25:03,42.805,6.029,-0.006,0.025,-0.04,99.0,103.0,98.0,13.3,1505.4,327.1,-0.7,1.8,2470.071,13.34,0.025,346.5
2019-11-14T01:28:03,42.805,6.029,0.014,0.025,-0.028,99.0,103.0,98.0,13.4,1505.4,327.1,-0.7,1.8,2470.041,13.34,0.028,29.3
2019-11-14T01:31:03,42.805,6.029,0.012,0.015,-0.03,100.0,103.0,98.0,13.4,1505.4,323.4,-0.7,1.8,2470.051,13.34,0.019,38.7
2019-11-14T01:34:03,42.805,6.029,0.003,0.025,-0.023,101.0,105.0,97.0,13.3,1505.4,326.4,-0.7,1.8,2470.031,13.34,0.025,6.8
2019-11-14T01:37:03,42.805,6.029,0.009,0.025,0.005,100.0,105.0,98.0,13.4,1505.4,326.7,-0.7,1.8,2470.061,13.34,0.026,19.8
2019-11-14T01:40:03,42.805,6.029,0.011,0.015,-0.005,99.0,105.0,98.0,13.4,1505.4,325.3,-0.7,1.8,2470.099,13.34,0.018,36.3
2019-11-14T01:43:03,42.805,6.029,-0.021,0.035,-0.064,100.0,105.0,97.0,13.4,1505.4,325.0,-0.7,1.8,2470.03,13.34,0.04,329.0
2019-11-14T01:46:03,42.805,6.029,-0.004,0.027,-0.035,99.0,106.0,97.0,13.4,1505.4,325.6,-0.7,1.8,2470.085,13.34,0.027,351.6
2019-11-14T01:49:03,42.805,6.029,-0.011,0.026,-0.03,101.0,104.0,98.0,13.4,1505.4,327.6,-0.7,1.8,2470.044,13.34,0.028,337.1
2019-11-14T01:52:03,42.805,6.029,0.019,0.012,-0.048,100.0,105.0,98.0,13.4,1505.4,323.8,-0.7,1.9,2470.07,13.34,0.022,57.7
2019-11-14T01:55:03,42.805,6.029,-0.005,0.006,-0.007,99.0,104.0,98.0,13.4,1505.4,324.9,-0.7,1.9,2470.063,13.34,0.007,320.2
2019-11-14T01:58:03,42.805,6.029,0.012,0.016,0.0,101.0,104.0,99.0,13.4,1505.4,324.2,-0.7,1.9,2470.045,13.34,0.02,36.9
2019-11-14T02:04:03,42.805,6.029,-0.01,0.043,-0.024,99.0,103.0,97.0,13.4,1505.3,323.3,-0.7,1.8,2470.072,13.33,0.044,346.9
2019-11-14T02:07:03,42.805,6.029,0.006,0.004,-0.053,100.0,104.0,98.0,13.4,1505.3,326.4,-0.7,1.9,2470.057,13.33,0.007,56.3
2019-11-14T02:10:03,42.805,6.029,-0.009,0.013,-0.036,100.0,105.0,99.0,13.4,1505.4,326.3,-0.8,1.9,2470.06,13.34,0.015,325.3
2019-11-14T02:13:03,42.805,6.029,-0.017,0.014,-0.036,99.0,105.0,97.0,13.4,1505.4,323.4,-0.7,1.8,2470.094,13.34,0.022,309.5
2019-11-14T02:16:03,42.805,6.029,-0.018,0.017,-0.073,100.0,105.0,97.0,13.3,1505.4,324.9,-0.7,1.8,2470.072,13.34,0.024,313.4
2019-11-14T02:19:03,42.805,6.029,-0.012,0.032,-0.068,100.0,105.0,98.0,13.3,1505.4,324.0,-0.7,1.8,2470.065,13.34,0.034,339.4
2019-11-14T02:22:03,42.805,6.029,0.006,0.046,0.02,100.0,105.0,97.0,13.4,1505.4,324.9,-0.7,1.8,2470.047,13.34,0.046,7.4
2019-11-14T02:25:03,42.805,6.029,-0.013,0.028,-0.004,101.0,104.0,97.0,13.3,1505.4,326.8,-0.7,1.8,2470.063,13.34,0.03,335.1
2019-11-14T02:28:03,42.805,6.029,-0.019,0.0,-0.041,100.0,104.0,97.0,13.3,1505.4,324.6,-0.7,1.8,2470.037,13.34,0.019,270.0
2019-11-14T02:31:03,42.805,6.029,-0.003,0.017,-0.007,99.0,106.0,99.0,13.4,1505.4,324.9,-0.7,1.9,2470.023,13.34,0.017,350.0
2019-11-14T02:34:03,42.805,6.029,-0.023,0.02,-0.037,96.0,106.0,98.0,13.4,1505.4,327.1,-0.7,1.8,2470.096,13.34,0.03,311.0
2019-11-14T02:37:03,42.805,6.029,-0.016,0.003,-0.041,100.0,107.0,96.0,13.4,1505.4,323.9,-0.7,1.8,2470.095,13.34,0.016,280.6
2019-11-14T02:40:03,42.805,6.029,-0.034,0.02,-0.025,99.0,106.0,97.0,13.4,1505.4,326.1,-0.7,1.8,2470.047,13.34,0.039,300.5
2019-11-14T02:43:03,42.805,6.029,-0.01,0.026,-0.025,98.0,105.0,99.0,13.3,1505.4,325.0,-0.7,1.8,2470.064,13.34,0.027,339.0
2019-11-14T02:46:03,42.805,6.029,0.01,0.019,-0.021,99.0,105.0,98.0,13.4,1505.4,324.6,-0.7,1.8,2470.058,13.34,0.021,27.8
2019-11-14T02:49:03,42.805,6.029,0.012,0.027,0.007,100.0,105.0,98.0,13.4,1505.4,327.0,-0.7,1.8,2470.068,13.34,0.029,24.0
2019-11-14T02:52:03,42.805,6.029,0.011,0.025,-0.014,101.0,105.0,98.0,13.4,1505.4,325.2,-0.7,1.8,2470.017,13.34,0.027,23.7
2019-11-14T02:55:03,42.805,6.029,-0.002,0.006,0.0,101.0,105.0,97.0,13.4,1505.4,324.8,-0.7,1.8,2470.062,13.34,0.006,341.6
2019-11-14T02:58:03,42.805,6.029,-0.01,0.011,-0.038,99.0,106.0,98.0,13.3,1505.4,328.5,-0.7,1.8,2470.052,13.34,0.014,317.7
2019-11-14T03:04:03,42.805,6.029,-0.012,0.013,-0.009,100.0,106.0,99.0,13.4,1505.3,326.8,-0.8,1.8,2470.087,13.32,0.017,317.3
2019-11-14T03:07:03,42.805,6.029,-0.019,0.029,-0.02,102.0,107.0,97.0,13.4,1505.3,324.2,-0.8,1.8,2470.072,13.32,0.034,326.8
2019-11-14T03:10:03,42.805,6.029,-0.005,0.008,-0.04,101.0,106.0,98.0,13.4,1505.3,324.8,-0.7,1.8,2470.084,13.33,0.009,328.0
2019-11-14T03:13:03,42.805,6.029,-0.02,0.032,-0.048,99.0,107.0,97.0,13.3,1505.3,326.0,-0.7,1.8,2470.071,13.33,0.037,328.0
2019-11-14T03:16:03,42.805,6.029,0.007,0.023,-0.034,100.0,105.0,98.0,13.3,1505.3,324.9,-0.7,1.8,2470.063,13.33,0.024,16.9
2019-11-14T03:19:03,42.805,6.029,-0.008,0.049,-0.007,101.0,106.0,97.0,13.4,1505.3,325.4,-0.7,1.8,2470.086,13.33,0.049,350.7
2019-11-14T03:22:03,42.805,6.029,0.004,0.03,-0.007,100.0,106.0,97.0,13.3,1505.3,324.9,-0.7,1.8,2470.042,13.33,0.03,7.6
2019-11-14T03:25:03,42.805,6.029,0.002,0.026,-0.013,100.0,105.0,98.0,13.4,1505.3,323.4,-0.7,1.8,2470.062,13.33,0.026,4.4
2019-11-14T03:28:03,42.805,6.029,-0.032,0.031,-0.038,102.0,108.0,98.0,13.3,1505.3,324.2,-0.7,1.8,2470.075,13.33,0.044,314.1
2019-11-14T03:31:03,42.805,6.029,-0.025,0.019,-0.054,98.0,107.0,99.0,13.4,1505.3,323.6,-0.7,1.8,2470.073,13.33,0.031,307.2
2019-11-14T03:34:03,42.805,6.029,-0.019,0.032,-0.015,100.0,105.0,96.0,13.4,1505.3,325.8,-0.7,1.8,2470.021,13.33,0.037,329.3
2019-11-14T03:37:03,42.805,6.029,-0.008,0.018,-0.015,99.0,106.0,98.0,13.3,1505.3,324.4,-0.7,1.9,2470.06,13.33,0.019,336.0
2019-11-14T03:40:03,42.805,6.029,-0.002,0.034,-0.039,100.0,109.0,97.0,13.4,1505.3,325.5,-0.7,1.8,2470.054,13.33,0.034,356.6
2019-11-14T03:43:03,42.805,6.029,0.014,0.024,-0.033,100.0,107.0,98.0,13.4,1505.3,323.9,-0.7,1.8,2470.043,13.33,0.027,30.3
2019-11-14T03:46:03,42.805,6.029,0.006,0.025,0.0,99.0,108.0,98.0,13.3,1505.3,324.9,-0.7,1.8,2470.092,13.33,0.025,13.5
2019-11-14T03:49:03,42.805,6.029,-0.026,0.025,-0.026,102.0,106.0,98.0,13.4,1505.3,324.7,-0.7,1.9,2470.055,13.33,0.036,313.9
2019-11-14T03:52:03,42.805,6.029,-0.046,0.017,-0.068,100.0,104.0,99.0,13.4,1505.3,326.2,-0.7,1.8,2470.071,13.33,0.049,290.3
2019-11-14T03:55:03,42.805,6.029,-0.01,0.016,-0.023,100.0,105.0,98.0,13.4,1505.3,326.7,-0.7,1.8,2470.074,13.33,0.018,328.0
2019-11-14T03:58:03,42.805,6.029,-0.036,0.046,-0.045,101.0,107.0,97.0,13.4,1505.3,327.6,-0.7,1.8,2470.055,13.33,0.058,322.0
2019-11-14T04:04:03,42.805,6.029,-0.046,0.04,-0.05,99.0,104.0,98.0,13.3,1505.3,324.6,-0.7,1.8,2470.092,13.31,0.06,311.0
2019-11-14T04:07:03,42.805,6.029,-0.004,0.02,-0.022,99.0,108.0,97.0,13.4,1505.3,328.5,-0.7,1.8,2470.103,13.32,0.02,348.7
2019-11-14T04:10:03,42.805,6.029,-0.044,0.036,-0.031,100.0,108.0,98.0,13.4,1505.3,324.7,-0.7,1.8,2470.099,13.32,0.056,309.3
2019-11-14T04:13:03,42.805,6.029,-0.017,0.033,-0.037,101.0,107.0,97.0,13.4,1505.3,324.5,-0.7,1.8,2470.091,13.33,0.037,332.7
2019-11-14T04:16:03,42.805,6.029,-0.018,0.037,-0.02,102.0,106.0,98.0,13.4,1505.3,323.0,-0.7,1.8,2470.066,13.33,0.041,334.1
2019-11-14T04:19:03,42.805,6.029,-0.01,0.03,-0.031,100.0,109.0,98.0,13.4,1505.3,326.5,-0.7,1.8,2470.109,13.33,0.031,341.6
2019-11-14T04:22:03,42.805,6.029,-0.008,0.009,-0.024,99.0,107.0,98.0,13.4,1505.3,324.7,-0.7,1.8,2470.095,13.33,0.012,318.4
2019-11-14T04:25:03,42.805,6.029,0.007,0.016,0.005,101.0,111.0,97.0,13.4,1505.3,327.9,-0.7,1.9,2470.092,13.33,0.017,23.6
2019-11-14T04:28:03,42.805,6.029,-0.027,0.023,-0.034,100.0,109.0,98.0,13.3,1505.3,326.8,-0.7,1.8,2470.064,13.33,0.035,310.4
2019-11-14T04:31:03,42.805,6.029,0.009,0.026,0.01,102.0,108.0,99.0,13.4,1505.3,325.5,-0.7,1.8,2470.083,13.33,0.027,19.1
2019-11-14T04:34:03,42.805,6.029,0.008,0.024,-0.015,101.0,106.0,98.0,13.4,1505.3,326.9,-0.7,1.8,2470.076,13.33,0.025,18.4
2019-11-14T04:37:03,42.805,6.029,0.003,0.032,0.003,99.0,108.0,97.0,13.3,1505.3,324.7,-0.7,1.8,2470.069,13.33,0.032,5.4
2019-11-14T04:40:03,42.805,6.029,-0.022,0.025,-0.032,99.0,110.0,98.0,13.4,1505.3,324.7,-0.6,1.8,2470.104,13.33,0.033,318.7
2019-11-14T04:43:03,42.805,6.029,-0.003,0.018,-0.015,100.0,107.0,98.0,13.4,1505.3,325.4,-0.7,1.9,2470.108,13.33,0.018,350.5
2019-11-14T04:46:03,42.805,6.029,0.01,0.03,-0.015,100.0,110.0,98.0,13.4,1505.3,326.4,-0.7,1.9,2470.101,13.33,0.031,18.4
2019-11-14T04:49:03,42.805,6.029,0.005,0.046,-0.026,100.0,109.0,98.0,13.4,1505.3,327.3,-0.7,1.8,2470.102,13.33,0.046,6.2
2019-11-14T04:52:03,42.805,6.029,-0.018,0.015,0.009,98.0,110.0,97.0,13.4,1505.3,326.3,-0.7,1.8,2470.137,13.33,0.023,309.8
2019-11-14T04:55:03,42.805,6.029,-0.01,0.038,-0.027,99.0,109.0,97.0,13.3,1505.3,323.2,-0.7,1.9,2470.154,13.33,0.039,345.3
2019-11-14T04:58:03,42.805,6.029,-0.02,0.014,-0.022,100.0,109.0,98.0,13.4,1505.3,323.1,-0.7,1.8,2470.139,13.33,0.024,305.0
2019-11-14T05:04:03,42.805,6.029,-0.01,0.033,-0.002,99.0,110.0,98.0,13.4,1505.3,328.0,-0.7,1.8,2470.192,13.31,0.034,343.1
2019-11-14T05:07:03,42.805,6.029,0.001,0.029,0.017,100.0,109.0,99.0,13.4,1505.3,327.9,-0.7,1.8,2470.139,13.32,0.029,2.0
2019-11-14T05:10:03,42.805,6.029,-0.035,0.045,-0.013,98.0,111.0,98.0,13.4,1505.3,327.8,-0.7,1.8,2470.162,13.32,0.057,322.1
2019-11-14T05:13:03,42.805,6.029,-0.002,0.034,-0.026,98.0,108.0,99.0,13.4,1505.3,326.9,-0.7,1.8,2470.134,13.32,0.034,356.6
2019-11-14T05:16:03,42.805,6.029,0.01,0.026,-0.014,99.0,110.0,97.0,13.4,1505.3,326.7,-0.7,1.8,2470.176,13.33,0.027,21.0
2019-11-14T05:19:03,42.805,6.029,0.0,0.019,0.014,102.0,110.0,98.0,13.3,1505.3,327.3,-0.7,1.8,2470.157,13.33,0.019,0.0
2019-11-14T05:22:03,42.805,6.029,-0.013,0.039,-0.042,99.0,111.0,97.0,13.4,1505.3,325.7,-0.7,1.8,2470.181,13.33,0.041,341.6
2019-11-14T05:25:03,42.805,6.029,0.011,0.034,-0.002,98.0,110.0,98.0,13.4,1505.3,325.9,-0.7,1.8,2470.198,13.33,0.035,17.9
2019-11-14T05:28:03,42.805,6.029,-0.013,0.035,-0.016,99.0,112.0,97.0,13.4,1505.3,327.1,-0.7,1.8,2470.193,13.33,0.037,339.6
2019-11-14T05:31:03,42.805,6.029,-0.002,0.008,-0.01,99.0,111.0,97.0,13.3,1505.3,324.5,-0.7,1.9,2470.149,13.33,0.008,346.0
2019-11-14T05:34:03,42.805,6.029,0.006,0.016,0.018,99.0,110.0,97.0,13.3,1505.3,327.6,-0.7,1.8,2470.186,13.33,0.017,20.6
2019-11-14T05:37:03,42.805,6.029,-0.004,0.025,-0.026,99.0,112.0,98.0,13.3,1505.3,327.7,-0.7,1.8,2470.167,13.33,0.025,350.9
2019-11-14T05:40:03,42.805,6.029,-0.013,0.028,-0.02,100.0,110.0,97.0,13.4,1505.3,326.9,-0.7,1.9,2470.2,13.33,0.03,335.1
2019-11-14T05:43:03,42.805,6.029,-0.012,0.026,-0.005,101.0,111.0,98.0,13.4,1505.3,327.1,-0.8,1.8,2470.15,13.33,0.028,335.2
2019-11-14T05:46:03,42.805,6.029,-0.002,0.045,-0.011,99.0,112.0,97.0,13.3,1505.3,327.8,-0.7,1.8,2470.209,13.33,0.045,357.5
2019-11-14T05:49:03,42.805,6.029,-0.002,0.029,-0.034,100.0,111.0,98.0,13.4,1505.3,325.1,-0.8,1.8,2470.2,13.33,0.029,356.1
2019-11-14T05:52:03,42.805,6.029,-0.03,0.015,0.0,101.0,110.0,98.0,13.4,1505.3,326.4,-0.7,1.8,2470.189,13.33,0.033,296.6
2019-11-14T05:55:03,42.805,6.029,-0.022,0.014,-0.016,101.0,111.0,98.0,13.3,1505.3,326.4,-0.7,1.8,2470.228,13.33,0.026,302.5
2019-11-14T05:58:03,42.805,6.029,-0.003,0.036,-0.019,100.0,112.0,97.0,13.4,1505.3,325.2,-0.7,1.8,2470.226,13.33,0.036,355.2
2019-11-14T06:04:03,42.805,6.029,-0.005,0.007,-0.021,99.0,112.0,98.0,13.4,1505.3,325.2,-0.7,1.8,2470.239,13.31,0.008,324.5
2019-11-14T06:07:03,42.805,6.029,-0.013,0.035,-0.021,99.0,111.0,98.0,13.4,1505.3,328.1,-0.7,1.8,2470.244,13.32,0.037,339.6
2019-11-14T06:10:03,42.805,6.029,0.012,0.027,0.011,99.0,111.0,99.0,13.4,1505.3,325.1,-0.7,1.8,2470.241,13.32,0.029,24.0
2019-11-14T06:13:03,42.805,6.029,0.029,0.024,0.009,101.0,111.0,98.0,13.4,1505.3,326.1,-0.7,1.8,2470.216,13.33,0.037,50.4
2019-11-14T06:16:03,42.805,6.029,0.019,0.036,0.006,101.0,110.0,97.0,13.4,1505.3,326.2,-0.8,1.8,2470.217,13.33,0.04,27.8
2019-11-14T06:19:03,42.805,6.029,0.011,0.026,-0.002,99.0,113.0,97.0,13.4,1505.3,328.3,-0.7,1.9,2470.222,13.33,0.028,22.9
2019-11-14T06:22:03,42.805,6.029,0.0,0.029,-0.008,101.0,111.0,98.0,13.4,1505.3,322.9,-0.7,1.8,2470.235,13.33,0.028,0.0
2019-11-14T06:25:03,42.805,6.029,-0.003,0.018,-0.002,100.0,110.0,100.0,13.4,1505.3,325.1,-0.7,1.8,2470.207,13.33,0.018,350.5
2019-11-14T06:28:03,42.805,6.029,-0.008,0.029,-0.013,101.0,113.0,96.0,13.4,1505.3,327.8,-0.7,1.8,2470.279,13.33,0.03,344.6
2019-11-14T06:31:03,42.805,6.029,-0.012,0.017,-0.058,100.0,112.0,98.0,13.4,1505.3,326.5,-0.7,1.9,2470.264,13.33,0.02,324.8
2019-11-14T06:34:03,42.805,6.029,0.013,0.045,0.039,100.0,110.0,97.0,13.4,1505.3,326.8,-0.7,1.8,2470.272,13.33,0.046,16.1
2019-11-14T06:37:03,42.805,6.029,-0.005,0.008,0.015,101.0,114.0,97.0,13.4,1505.3,324.6,-0.7,1.9,2470.222,13.33,0.009,328.0
2019-11-14T06:40:03,42.805,6.029,-0.012,0.029,0.018,101.0,114.0,98.0,13.4,1505.3,326.6,-0.7,1.8,2470.217,13.33,0.031,337.5
2019-11-14T06:43:03,42.805,6.029,0.007,0.035,0.034,99.0,115.0,97.0,13.4,1505.3,327.4,-0.7,1.8,2470.258,13.33,0.035,11.3
2019-11-14T06:46:03,42.805,6.029,0.007,0.013,-0.001,100.0,113.0,98.0,13.4,1505.3,325.5,-0.7,1.8,2470.285,13.33,0.014,28.3
2019-11-14T06:49:03,42.805,6.029,-0.01,0.019,-0.032,100.0,112.0,98.0,13.4,1505.3,326.3,-0.7,1.8,2470.263,13.33,0.021,332.2
2019-11-14T06:52:03,42.805,6.029,0.039,0.023,0.043,99.0,112.0,97.0,13.4,1505.3,326.0,-0.7,1.9,2470.268,13.33,0.045,59.5
2019-11-14T06:55:03,42.805,6.029,0.013,0.029,0.003,99.0,113.0,98.0,13.3,1505.3,327.9,-0.7,1.8,2470.238,13.33,0.031,24.1
2019-11-14T06:58:03,42.805,6.029,0.02,0.052,0.028,99.0,112.0,98.0,13.3,1505.3,327.4,-0.7,1.8,2470.226,13.33,0.055,21.0
2019-11-14T07:04:03,42.805,6.029,0.006,0.014,0.009,100.0,112.0,97.0,13.4,1505.3,326.7,-0.7,1.9,2470.294,13.31,0.015,23.2
2019-11-14T07:07:03,42.805,6.029,-0.018,0.029,-0.006,100.0,114.0,97.0,13.3,1505.3,328.1,-0.7,1.8,2470.277,13.32,0.034,328.2
2019-11-14T07:10:03,42.805,6.029,0.022,0.017,0.022,100.0,114.0,97.0,13.3,1505.3,326.4,-0.7,1.8,2470.25,13.32,0.027,52.3
2019-11-14T07:13:03,42.805,6.029,0.008,0.016,-0.006,100.0,113.0,98.0,13.4,1505.3,327.7,-0.7,1.8,2470.256,13.33,0.017,26.6
2019-11-14T07:16:03,42.805,6.029,-0.018,0.017,-0.025,99.0,115.0,98.0,13.4,1505.3,326.0,-0.7,1.8,2470.281,13.33,0.024,313.4
2019-11-14T07:19:03,42.805,6.029,0.01,0.025,0.014,100.0,114.0,98.0,13.4,1505.3,327.1,-0.7,1.8,2470.265,13.33,0.026,21.8
2019-11-14T07:22:03,42.805,6.029,-0.002,0.025,-0.019,101.0,110.0,97.0,13.4,1505.3,323.8,-0.7,1.8,2470.207,13.33,0.025,355.4
2019-11-14T07:25:03,42.805,6.029,-0.007,0.037,-0.018,100.0,114.0,98.0,13.4,1505.3,325.8,-0.7,1.8,2470.247,13.33,0.037,349.3
2019-11-14T07:28:03,42.805,6.029,0.02,0.035,-0.021,98.0,113.0,98.0,13.3,1505.3,325.0,-0.7,1.9,2470.25,13.33,0.04,29.7
2019-11-14T07:31:03,42.805,6.029,0.031,0.037,0.017,99.0,113.0,98.0,13.4,1505.3,328.5,-0.7,1.8,2470.278,13.33,0.048,40.0
2019-11-14T07:34:03,42.805,6.029,0.003,0.036,0.013,100.0,115.0,97.0,13.3,1505.3,328.0,-0.7,1.9,2470.308,13.33,0.036,4.8
2019-11-14T07:37:03,42.805,6.029,-0.013,0.022,-0.02,99.0,114.0,99.0,13.3,1505.3,324.0,-0.7,1.9,2470.257,13.33,0.025,329.4
2019-11-14T07:40:03,42.805,6.029,0.015,0.028,-0.021,99.0,113.0,98.0,13.4,1505.3,326.9,-0.7,1.8,2470.282,13.33,0.031,28.2
2019-11-14T07:43:03,42.805,6.029,0.013,0.026,-0.018,100.0,113.0,99.0,13.3,1505.3,324.5,-0.7,1.8,2470.28,13.33,0.029,26.6
2019-11-14T07:46:03,42.805,6.029,0.017,0.018,-0.022,100.0,110.0,98.0,13.4,1505.3,325.7,-0.7,1.8,2470.247,13.33,0.024,43.4
2019-11-14T07:49:03,42.805,6.029,0.019,0.028,0.005,99.0,113.0,98.0,13.3,1505.3,326.6,-0.7,1.9,2470.267,13.33,0.033,34.2
2019-11-14T07:52:03,42.805,6.029,-0.001,0.035,-0.014,100.0,110.0,98.0,13.4,1505.3,328.0,-0.7,1.8,2470.255,13.33,0.035,358.4
2019-11-14T07:55:03,42.805,6.029,0.024,0.034,0.006,100.0,114.0,97.0,13.4,1505.3,327.2,-0.7,1.8,2470.263,13.33,0.041,35.2
2019-11-14T07:58:03,42.805,6.029,0.028,0.03,0.006,99.0,113.0,97.0,13.3,1505.3,325.8,-0.7,1.9,2470.301,13.33,0.041,43.0
2019-11-14T08:04:03,42.805,6.029,0.046,0.034,0.003,100.0,114.0,97.0,13.4,1505.3,326.0,-0.8,1.8,2470.298,13.31,0.057,53.5
2019-11-14T08:07:03,42.805,6.029,0.002,0.015,-0.024,99.0,113.0,98.0,13.3,1505.3,327.1,-0.7,1.8,2470.253,13.31,0.015,7.6
2019-11-14T08:10:03,42.805,6.029,0.004,0.023,0.0,100.0,114.0,98.0,13.3,1505.3,326.0,-0.7,1.8,2470.278,13.32,0.023,9.9
2019-11-14T08:13:03,42.805,6.029,0.019,0.037,-0.034,99.0,115.0,97.0,13.4,1505.3,325.1,-0.7,1.8,2470.254,13.32,0.041,27.2
2019-11-14T08:16:03,42.805,6.029,0.028,0.025,-0.018,100.0,114.0,97.0,13.3,1505.3,326.2,-0.7,1.9,2470.28,13.32,0.037,48.2
2019-11-14T08:19:03,42.805,6.029,0.034,0.045,-0.006,101.0,113.0,97.0,13.4,1505.3,324.7,-0.7,1.9,2470.277,13.32,0.056,37.1
2019-11-14T08:22:03,42.805,6.029,-0.009,0.046,-0.033,100.0,115.0,98.0,13.4,1505.3,326.1,-0.7,1.8,2470.281,13.32,0.046,348.9
2019-11-14T08:25:03,42.805,6.029,0.041,0.051,-0.008,101.0,114.0,98.0,13.3,1505.3,326.0,-0.7,1.8,2470.287,13.32,0.065,38.8
2019-11-14T08:28:03,42.805,6.029,0.01,0.023,-0.046,99.0,114.0,97.0,13.3,1505.3,325.9,-0.8,1.8,2470.299,13.32,0.025,23.5
2019-11-14T08:31:03,42.805,6.029,0.022,0.053,0.016,99.0,113.0,97.0,13.4,1505.3,325.1,-0.7,1.8,2470.271,13.32,0.057,22.5
2019-11-14T08:34:03,42.805,6.029,0.008,0.044,-0.014,100.0,117.0,98.0,13.3,1505.3,324.5,-0.7,1.9,2470.283,13.32,0.044,10.3
2019-11-14T08:37:03,42.805,6.029,0.012,0.051,-0.058,101.0,114.0,97.0,13.4,1505.3,324.3,-0.7,1.8,2470.267,13.32,0.052,13.2
2019-11-14T08:40:03,42.805,6.029,0.041,0.042,-0.032,100.0,115.0,97.0,13.4,1505.3,324.3,-0.7,1.8,2470.289,13.32,0.058,44.3
2019-11-14T08:43:03,42.805,6.029,0.028,0.02,-0.045,100.0,113.0,98.0,13.4,1505.3,324.7,-0.7,1.8,2470.278,13.32,0.034,54.5
2019-11-14T08:46:03,42.805,6.029,0.04,0.033,-0.009,100.0,114.0,98.0,13.3,1505.3,327.8,-0.7,1.8,2470.311,13.32,0.051,50.5
2019-11-14T08:49:03,42.805,6.029,0.016,0.025,-0.065,100.0,115.0,98.0,13.4,1505.3,326.4,-0.7,1.8,2470.252,13.32,0.029,32.6
2019-11-14T08:52:03,42.805,6.029,0.035,0.045,-0.035,101.0,115.0,98.0,13.4,1505.3,324.1,-0.8,1.9,2470.233,13.32,0.057,37.9
2019-11-14T08:55:03,42.805,6.029,0.035,0.026,-0.015,100.0,114.0,98.0,13.3,1505.3,328.5,-0.7,1.8,2470.276,13.32,0.043,53.4
2019-11-14T08:58:03,42.805,6.029,0.033,0.018,-0.056,100.0,114.0,99.0,13.4,1505.3,327.0,-0.7,1.9,2470.278,13.32,0.037,61.4
2019-11-14T09:04:03,42.805,6.029,0.03,0.019,-0.047,100.0,114.0,98.0,13.3,1505.2,326.8,-0.7,1.8,2470.3,13.3,0.035,57.7
2019-11-14T09:07:03,42.805,6.029,0.022,0.035,-0.061,99.0,115.0,99.0,13.3,1505.3,326.4,-0.7,1.9,2470.282,13.31,0.041,32.2
2019-11-14T09:10:03,42.805,6.029,0.032,0.024,-0.04,101.0,114.0,98.0,13.4,1505.3,323.6,-0.7,1.8,2470.266,13.31,0.04,53.1
2019-11-14T09:13:03,42.805,6.029,0.021,0.021,-0.05,102.0,113.0,99.0,13.3,1505.3,325.6,-0.7,1.8,2470.221,13.32,0.029,45.0
2019-11-14T09:16:03,42.805,6.029,0.019,0.035,-0.037,100.0,113.0,99.0,13.4,1505.3,323.5,-0.7,1.8,2470.28,13.32,0.039,28.5
2019-11-14T09:19:03,42.805,6.029,0.039,0.014,-0.024,101.0,114.0,98.0,13.4,1505.3,326.5,-0.7,1.8,2470.27,13.32,0.041,70.3
2019-11-14T09:22:03,42.805,6.029,-0.014,0.03,-0.077,101.0,116.0,98.0,13.3,1505.3,323.0,-0.7,1.8,2470.274,13.32,0.033,335.0
2019-11-14T09:25:03,42.805,6.029,0.021,0.043,-0.052,100.0,116.0,99.0,13.3,1505.3,324.4,-0.7,1.9,2470.279,13.32,0.047,26.0
2019-11-14T09:28:03,42.805,6.029,0.008,0.031,-0.073,102.0,114.0,99.0,13.4,1505.3,323.8,-0.7,1.9,2470.274,13.32,0.032,14.5
2019-11-14T09:31:03,42.805,6.029,0.033,0.03,-0.039,100.0,113.0,99.0,13.4,1505.3,325.4,-0.7,1.8,2470.274,13.32,0.044,47.7
2019-11-14T09:34:03,42.805,6.029,0.026,0.034,-0.046,103.0,113.0,98.0,13.4,1505.3,323.1,-0.7,1.9,2470.249,13.32,0.042,37.4
2019-11-14T09:37:03,42.805,6.029,0.032,0.036,-0.033,100.0,114.0,98.0,13.4,1505.3,326.7,-0.7,1.9,2470.29,13.32,0.048,41.6
2019-11-14T09:40:03,42.805,6.029,0.019,0.021,-0.025,99.0,112.0,100.0,13.4,1505.3,328.4,-0.7,1.8,2470.263,13.32,0.028,42.1
2019-11-14T09:43:03,42.805,6.029,0.027,0.05,-0.024,100.0,114.0,99.0,13.4,1505.3,323.1,-0.8,1.9,2470.246,13.32,0.056,28.4
2019-11-14T09:46:03,42.805,6.029,0.011,0.022,0.016,101.0,112.0,98.0,13.4,1505.3,326.5,-0.7,1.8,2470.214,13.32,0.024,26.6
2019-11-14T09:49:03,42.805,6.029,0.03,0.03,0.0,99.0,112.0,98.0,13.4,1505.3,325.7,-0.7,1.8,2470.236,13.32,0.042,45.0
2019-11-14T09:52:03,42.805,6.029,0.03,0.036,-0.01,101.0,112.0,98.0,13.3,1505.3,325.6,-0.7,1.9,2470.242,13.32,0.046,39.8
2019-11-14T09:55:03,42.805,6.029,0.037,0.036,-0.027,101.0,112.0,98.0,13.4,1505.3,328.7,-0.7,1.8,2470.228,13.32,0.051,45.8
2019-11-14T09:58:03,42.805,6.029,0.015,0.034,-0.014,101.0,111.0,100.0,13.4,1505.3,326.3,-0.7,1.8,2470.197,13.32,0.037,23.8
2019-11-14T10:04:03,42.805,6.029,0.032,0.022,-0.04,100.0,112.0,98.0,13.4,1505.2,326.1,-0.7,1.8,2470.274,13.3,0.038,55.5
2019-11-14T10:07:03,42.805,6.029,0.024,0.022,-0.059,101.0,111.0,98.0,13.4,1505.3,328.7,-0.7,1.9,2470.247,13.31,0.032,47.5
2019-11-14T10:10:03,42.805,6.029,0.039,0.029,-0.029,100.0,112.0,99.0,13.4,1505.3,325.8,-0.7,1.9,2470.235,13.31,0.048,53.4